This is the latest recevied weather packets stored in our database for station/object CQ0XPG-11. If no packets are shown the sender has not sent any weather packets the latest 1 day(s).
| Time | Temp. | Humidity | Pressure | Rain* | Wind** | Luminosity | Snow |
|---|---|---|---|---|---|---|---|
| 1778067795 | 16.67° C | 57% | 1003.8 hPa | 0 mm | - | - | - |
| 1778067191 | 17.78° C | 54% | 1003.9 hPa | 0 mm | - | - | - |
| 1778066900 | 17.78° C | 54% | 1004 hPa | 0 mm | - | - | - |
| 1778066585 | 17.22° C | 54% | 1004 hPa | 0 mm | - | - | - |
| 1778065079 | 17.22° C | 61% | 1004.2 hPa | 0 mm | - | - | - |
| 1778064765 | 16.67° C | 65% | 1004.2 hPa | 0 mm | - | - | - |
| 1778064152 | 16.67° C | 64% | 1004.3 hPa | 0 mm | - | - | - |
| 1778063866 | 16.11° C | 66% | 1004.2 hPa | 0 mm | - | - | - |
| 1778062674 | 16.11° C | 70% | 1004.4 hPa | 0 mm | - | - | - |
| 1778062353 | 16.11° C | 77% | 1004.5 hPa | 0 mm | - | - | - |
| 1778061733 | 15.56° C | 81% | 1004.5 hPa | 0 mm | - | - | - |
| 1778061456 | 15.56° C | 80% | 1004.4 hPa | 0 mm | - | - | - |
| 1778060232 | 15° C | 98% | 1004.5 hPa | 0 mm | - | - | - |
| 1778059647 | 14.44° C | 100% | 1004.7 hPa | 0 mm | - | - | - |
| 1778057801 | 13.33° C | 100% | 1004.7 hPa | 0 mm | - | - | - |
| 1778057490 | 13.33° C | 100% | 1004.8 hPa | 0 mm | - | - | - |
| 1778057195 | 12.78° C | 100% | 1004.7 hPa | 0 mm | - | - | - |
| 1778056588 | 12.22° C | 100% | 1004.8 hPa | 0 mm | - | - | - |
| 1778056275 | 11.67° C | 100% | 1004.8 hPa | 0 mm | - | - | - |
| 1778054775 | 10.56° C | 100% | 1004 hPa | 0 mm | - | - | - |
| 1778054450 | 10° C | 100% | 1003.4 hPa | 0 mm | - | - | - |
| 1778053850 | 8.89° C | 100% | 1003.1 hPa | 0 mm | - | - | - |
| 1778053237 | 8.33° C | 100% | 1002.9 hPa | 0 mm | - | - | - |
| 1778051741 | 6.11° C | 100% | 1002.9 hPa | 0 mm | - | - | - |
| 1778051126 | 5.56° C | 100% | 1003.3 hPa | 0 mm | - | - | - |
* Rain since midnight (hover to see other rain measurements)
** Current wind speed in m/s (hover to see current wind gust speed)